Location: Wallasey
(53.4265°N, 3.0662°W)
Time: 13:38:58
(UTC+01:00)

ISS - Pass Details

Date: 28 March 2019
Orbit: 408 x 410 km, 51.6° (Epoch: 18 April)

Event Time Altitude Azimuth Distance (km) Brightness Sun altitude
Rises 19:52:01 0° 257° (WSW) 2,337 1.0 -11.3°
Reaches altitude 10° 19:54:07 10° 254° (WSW) 1,476 -0.2 -11.5°
Maximum altitude 19:57:23 61° 173° (S) 470 -3.7 -12.0°
Enters shadow 19:59:24 21° 98° (E) 980 -2.5 -12.3°
